Tracking 31027 objects as of 19-Jul-2025
HD Live streaming from Space Station
objects crossing your sky now

CZ-4B R/B

Track CZ-4B R/B now!
10-day predictions


NORAD ID: 37181
Int'l Code: 2010-051C
Perigee: 475.6 km
Apogee: 585.1 km
Inclination: 97.8 °
Period: 95.1 minutes
Semi major axis: 6901 km
RCS: 6.051 m2 (large)
Launch date: October 6, 2010
Source: People's Republic of China (PRC)
Launch site: Taiyaun Space Center, China (TSC)

Note: This is a ROCKET BODY
Your satellite tracking list
FREGAT DEB
Track 1 satellite(s)




NASA's NSSDC Master Catalog

Two Line Element Set (TLE):
1 37181U 10051C   25199.81329241  .00003054  00000-0  15835-3 0  9990
2 37181  97.8277 230.1986 0079361 178.2426 181.9099 15.14264181808126
Source of the keplerian elements: AFSPC